Regional Weather Roundup
Issued by NWS Portland, ME

Home | Current Version | Previous Version | Text Only | Print | Product List | Glossary On
Versions: 1 2 3 4 5 6 7 8 9 10 11 12 13 14 15 16 17 18 19 20 21 22 23 24 25 26 27 28 29 30 31 32 33 34 35 36 37 38 39 40 41 42 43 44 45 46 47 48 49 50
000
ASUS41 KGYX 201005
RWRGYX
WEATHER ROUNDUP FOR MAINE AND NEW HAMPSHIRE
NATIONAL WEATHER SERVICE GRAY ME
500 AM EST TUE FEB 20 2018

MEZ002-005-006-010-012-015-018-020-021-024-026-027-029-201100-
MAINE

CITY           SKY/WX    TMP DP  RH WIND       PRES   REMARKS
PORTLAND       LGT RAIN  39  39 100 NW3       30.21R VSB 3/4
SANFORD        FOG       42  42 100 CALM      30.20S VSB 3/4
BAR HARBOR     LGT RAIN  38  38 100 NW5       30.25R VSB 1/4
WISCASSET      LGT RAIN  36  36 100 CALM      30.23R FOG
ROCKLAND       LGT RAIN  41  41 100 CALM      30.22S VSB 3/4
FRYEBURG       CLOUDY    37  37 100 CALM      30.19S
LEWISTONAUBURN LGT RAIN  37  36  96 CALM      30.22R
AUGUSTA        CLOUDY    36  36 100 N3        30.22S FOG
WATERVILLE     CLOUDY    37  36  96 N3        30.18R
BANGOR         LGT RAIN  36  36 100 NE5       30.24R VSB 1
GREENVILLE       N/A     33  33 100 CALM      30.18R
MILLINOCKET    LGT RAIN  33  33 100 CALM      30.24F FOG
HOULTON        LGT RAIN  34  33  96 CALM      30.23R VSB 1/2
PRESQUE ISLE   LGT RAIN  32  30  92 CALM      30.25R
FRENCHVILLE    CLOUDY    29  28  96 CALM      30.21S
CARIBOU        CLOUDY    33  30  88 CALM      30.23S
$$

NHZ002-005-008-009-011-012-014-201100-
NEW HAMPSHIRE

CITY           SKY/WX    TMP DP  RH WIND       PRES   REMARKS
PORTSMOUTH     MOCLDY    46  46  99 SW5       30.18F
ROCHESTER      FOG       42  42 100 CALM      30.19R VSB 1/2
NASHUA         CLOUDY    45  45 100 CALM      30.21F FOG
MANCHESTER     MOCLDY    48  46  93 S7        30.19R
CONCORD        CLOUDY    44  42  93 CALM      30.19S
LACONIA        LGT RAIN  35  35 100 CALM      30.19F FOG
PLYMOUTH       MIX PCPN  34  33  99 CALM      30.20S
BERLIN         LGT RAIN  35  34  96 CALM      30.16S FOG
WHITEFIELD     LGT RAIN  35  35 100 CALM      30.16F FOG
JAFFREY        FOG       43  43 100 S6        30.20F VSB 1/4
KEENE          FOG       38  37  97 CALM      30.21F VSB 1
LEBANON        CLOUDY    38  38 100 SW5       30.18R
MT WASHINGTON  RAIN      37  37 100 W59         N/A  VSB 0
$$

VTZ005-007-008-201100-
VERMONT

CITY           SKY/WX    TMP DP  RH WIND       PRES   REMARKS
ST JOHNSBURY     N/A     35  35 100 MISG      30.16S
MONTPELIER     LGT RAIN  35  35 100 NW3       30.18R VSB 1/2
BURLINGTON     LGT RAIN  46  42  86 S12G21    30.13S
$$

MAZ007-012-024-CTZ003-RIZ002-NYZ038-NYZ072-201100-
SOUTHERN NEW ENGLAND AND NY

CITY           SKY/WX    TMP DP  RH WIND       PRES   REMARKS
BOSTON         CLOUDY    52  50  93 SW16      30.23S
WORCESTER      CLOUDY    48  47  96 SW15      30.22S
NANTUCKET      LGT RAIN  47  47 100 SW15      30.32R VSB 1/2
PROVIDENCE     CLOUDY    52  51  97 SW14      30.27S
HARTFORD       CLOUDY    46  46 100 S8        30.25S
ALBANY         CLOUDY    44  41  89 S7G17     30.21S
NEW YORK CITY  CLOUDY    51  48  89 W9        30.29R
$$

ANZ081-ANZ082-ANZ150-NHZ014-MEZ023>029-201100-
COASTAL MARINE OBSERVATIONS

STATION/POSITION TIME  TEMP    WIND        PRES    WAVE
                       AIR SEA DIR/SP/G            HT/PER
                 (UTC) (F)     (DEG/KT/KT) (MB)    (FT/S)
MOUNT DESERT ROC 1000   44     240/  6/  7 1023.9F
MATINICUS ROCK   0900   43     220/ 16/ 17 1022.8F
ISLE OF SHOALS   0900   49     210/ 15/ 15 1022.5F
JEFFREYS LEDGE   0936      42                N/A     5/11
GEORGES BANK BUO 0850   48 57              1034.4   10/14
$$

.............KEY..............
   WCI - WIND CHILL
   TC  - TEMPERATURE IN CELSIUS
   VSB - VISIBILITY IN MILES
   HX  - HEAT INDEX
   FAIR- INDICATES FEW OR NO CLOUDS BELOW 12,000 FT, WITH NO
         SIGNIFICANT WEATHER AND/OR OBSTRUCTIONS TO VISIBILITY.






USA.gov is the U.S. government's official web portal to all federal, state and local government web resources and services.